TimeEST,TemperatureF,Dew PointF,Humidity,Sea Level PressureIn,VisibilityMPH,Wind Direction,Wind SpeedMPH,Gust SpeedMPH,PrecipitationIn,Events,Conditions,WindDirDegrees,DateUTC
12:53 AM,17.1,1.0,50,29.72,10.0,WSW,19.6,31.1,N/A,,Overcast,250,2014-01-07 05:53:00
1:53 AM,12.9,-8.0,39,29.77,10.0,West,17.3,21.9,N/A,,Overcast,260,2014-01-07 06:53:00
2:53 AM,10.9,-9.9,39,29.83,10.0,West,19.6,33.4,N/A,,Clear,270,2014-01-07 07:53:00
3:53 AM,9.0,-11.0,40,29.88,10.0,WNW,18.4,29.9,N/A,,Clear,290,2014-01-07 08:53:00
4:53 AM,8.1,-11.9,40,29.91,10.0,West,11.5,23.0,N/A,,Clear,280,2014-01-07 09:53:00
5:53 AM,7.0,-11.9,42,29.94,10.0,West,10.4,17.3,N/A,,Clear,270,2014-01-07 10:53:00
6:53 AM,6.1,-13.0,41,29.99,10.0,SW,12.7,25.3,N/A,,Clear,230,2014-01-07 11:53:00
7:53 AM,6.1,-13.0,41,30.03,10.0,West,17.3,21.9,N/A,,Clear,260,2014-01-07 12:53:00
8:53 AM,6.1,-14.1,39,30.08,10.0,West,19.6,29.9,N/A,,Clear,260,2014-01-07 13:53:00
9:53 AM,7.0,-13.0,40,30.11,10.0,West,23.0,28.8,N/A,,Clear,270,2014-01-07 14:53:00
10:53 AM,9.0,-11.9,38,30.12,10.0,West,20.7,28.8,N/A,,Clear,260,2014-01-07 15:53:00
11:53 AM,10.0,-13.0,35,30.10,10.0,West,16.1,33.4,N/A,,Clear,270,2014-01-07 16:53:00
12:53 PM,10.0,-13.0,35,30.09,10.0,WSW,18.4,25.3,N/A,,Clear,250,2014-01-07 17:53:00
1:53 PM,10.9,-14.1,32,30.11,10.0,WSW,15.0,25.3,N/A,,Clear,250,2014-01-07 18:53:00
2:53 PM,10.9,-14.1,32,30.14,10.0,West,11.5,26.5,N/A,,Clear,260,2014-01-07 19:53:00
3:53 PM,10.9,-14.1,32,30.16,10.0,West,13.8,-,N/A,,Clear,260,2014-01-07 20:53:00
4:53 PM,9.0,-11.9,38,30.20,10.0,SW,15.0,-,N/A,,Clear,230,2014-01-07 21:53:00
5:53 PM,8.1,-11.9,40,30.23,10.0,WSW,17.3,23.0,N/A,,Clear,240,2014-01-07 22:53:00
6:53 PM,8.1,-11.9,40,30.25,10.0,West,12.7,-,N/A,,Clear,260,2014-01-07 23:53:00
7:53 PM,8.1,-11.0,42,30.26,10.0,West,10.4,-,N/A,,Clear,260,2014-01-08 00:53:00
8:53 PM,8.1,-9.9,44,30.29,10.0,WSW,11.5,-,N/A,,Clear,240,2014-01-08 01:53:00
9:53 PM,8.1,-9.0,46,30.31,10.0,SW,9.2,-,N/A,,Clear,220,2014-01-08 02:53:00
10:53 PM,8.1,-9.0,46,30.33,10.0,SW,9.2,-,N/A,,Clear,230,2014-01-08 03:53:00
11:53 PM,8.1,-8.0,48,30.34,10.0,WSW,12.7,-,N/A,,Clear,250,2014-01-08 04:53:00